Weather History for Annette Island, AK

Change the Weather History Date:

Tuesday, April 15, 2014

  Actual Average Record
Temperature  
Mean Temperature 44 °F 44 °F  
Max Temperature 47 °F 50 °F 67 °F (1990)
Min Temperature 40 °F 38 °F 28 °F (1972)
Degree Days  
Heating Degree Days 21 21  
Month to date heating degree days 341 330  
Since 1 July heating degree days 5697 5652  
Cooling Degree Days 0    
Month to date cooling degree days 0  
Year to date cooling degree days 0  
Moisture  
Dew Point 40 °F    
Average Humidity 0    
Maximum Humidity 0    
Minimum Humidity 0    
Precipitation  
Precipitation 0.24 in 0.22 in 1.40 in (2007)
Month to date precipitation 8.18 3.66  
Year to date precipitation 28.42 29.75  
Snow  
Snow 0.00 in 0.10 in 1.70 in (1964)
Month to date snowfall 0.0 1.1  
Since 1 July snowfall 25.4 34.5  
Snow Depth 0.00 in    
Sea Level Pressure  
Sea Level Pressure 29.92 in    
Wind  
Wind Speed 6 mph (SE)    
Max Wind Speed 13 mph    
Max Gust Speed 17 mph    
Visibility 10 miles    
Events Rain    
T = Trace of Precipitation, MM = Missing Value Source: NWS Daily Summary

Daily Weather History Graph

Daily Weather History Graph

Search for Another Location

Airport:

Trip Planner

Search our weather history database for the weather conditions in past years. The results will help you decide how hot, cold, wet, or windy it might be!

Date:

Astronomy

Apr. 15, 2014 Rise Set
Actual Time 5:42 AM AKDT 7:51 PM AKDT
Civil Twilight 5:03 AM AKDT 8:30 PM AKDT
Nautical Twilight 4:14 AM AKDT 9:20 PM AKDT
Astronomical Twilight 3:15 AM AKDT 10:19 PM AKDT
Moon 8:48 PM AKDT (4/15) 5:52 AM AKDT (4/15)
Length of Visible Light 15h 26m
Length of Day
14h 08m
Full, 100% of the Moon is Illuminated
Apr 15
Full
Apr 21
Last Quarter
Apr 28
New
May 6
First Quarter
May 14
Full

Hourly Weather History & Observations

Time (AKDT) Temp. Windchill Dew Point Humidity Pressure Visibility Wind Dir Wind Speed Gust Speed Precip Events Conditions
12:02 AM 41.0 °F 38.0 °F 41.0 °F 100% 29.85 in 10.0 mi South 4.6 mph - 0.00 in Rain Light Rain
12:53 AM 41.0 °F 39.0 °F 39.9 °F 96% 29.86 in 10.0 mi SE 3.5 mph - 0.02 in Rain Light Rain
1:01 AM 41.0 °F 39.0 °F 41.0 °F 100% 29.86 in 10.0 mi SSE 3.5 mph - 0.00 in Rain Light Rain
1:31 AM 41.0 °F - 39.9 °F 96% 29.86 in 10.0 mi Calm Calm - 0.01 in Rain Light Rain
1:53 AM 41.0 °F 39.0 °F 39.9 °F 96% 29.87 in 10.0 mi SSE 3.5 mph - 0.01 in Rain Light Rain
2:15 AM 39.9 °F 37.8 °F 39.9 °F 100% 29.87 in 10.0 mi SSE 3.5 mph - 0.01 in Rain Light Rain
2:53 AM 39.9 °F 36.7 °F 39.9 °F 100% 29.88 in 10.0 mi SSE 4.6 mph - 0.02 in Rain Light Rain
3:05 AM 39.9 °F 37.8 °F 39.9 °F 100% 29.88 in 10.0 mi South 3.5 mph - 0.01 in Rain Light Rain
3:25 AM 41.0 °F 37.1 °F 39.9 °F 96% 29.88 in 10.0 mi Variable 5.8 mph - 0.01 in Rain Light Rain
3:35 AM 41.0 °F 37.1 °F 39.9 °F 96% 29.88 in 10.0 mi Variable 5.8 mph - 0.01 in Rain Light Rain
3:43 AM 39.9 °F 35.1 °F 39.9 °F 100% 29.89 in 10.0 mi South 6.9 mph - 0.02 in Rain Light Rain
3:53 AM 41.0 °F 37.1 °F 39.9 °F 96% 29.90 in 10.0 mi South 5.8 mph - 0.02 in Rain Light Rain
4:06 AM 41.0 °F 38.0 °F 39.9 °F 96% 29.89 in 10.0 mi SSE 4.6 mph - 0.00 in Rain Light Rain
4:17 AM 39.9 °F 35.8 °F 39.9 °F 100% 29.89 in 10.0 mi South 5.8 mph - 0.01 in Rain Light Rain
4:53 AM 39.9 °F 37.8 °F 39.9 °F 100% 29.90 in 10.0 mi SSE 3.5 mph - 0.03 in Rain Light Rain
5:53 AM 39.9 °F 37.8 °F 39.9 °F 100% 29.90 in 10.0 mi ESE 3.5 mph - 0.01 in Rain Light Rain
6:14 AM 39.9 °F 37.8 °F 39.9 °F 100% 29.90 in 10.0 mi SE 3.5 mph - 0.02 in Rain Light Rain
6:53 AM 39.9 °F 36.7 °F 39.9 °F 100% 29.91 in 10.0 mi ESE 4.6 mph - 0.03 in Rain Light Rain
7:43 AM 41.0 °F 37.1 °F 39.9 °F 96% 29.91 in 10.0 mi ESE 5.8 mph - 0.01 in Rain Light Rain
7:53 AM 41.0 °F 35.8 °F 39.9 °F 96% 29.92 in 5.0 mi SE 8.1 mph - 0.01 in Rain Light Rain
8:53 AM 42.1 °F 38.4 °F 41.0 °F 96% 29.93 in 10.0 mi ESE 5.8 mph - 0.02 in   Overcast
9:00 AM 42.1 °F 37.7 °F 41.0 °F 96% 29.92 in 10.0 mi SSE 6.9 mph - N/A   Overcast
9:53 AM 43.0 °F 38.2 °F 41.0 °F 93% 29.94 in 10.0 mi ESE 8.1 mph - N/A   Overcast
10:07 AM 42.1 °F 37.7 °F 41.0 °F 96% 29.94 in 10.0 mi ESE 6.9 mph - N/A   Overcast
10:41 AM 41.0 °F 39.0 °F 39.9 °F 96% 29.94 in 4.0 mi South 3.5 mph - 0.05 in Rain Rain
10:53 AM 41.0 °F - 39.9 °F 96% 29.95 in 8.0 mi Calm Calm - 0.07 in Rain Light Rain
11:01 AM 42.1 °F - 41.0 °F 96% 29.94 in 8.0 mi Calm Calm - 0.01 in Rain Light Rain
11:53 AM 44.1 °F 40.1 °F 43.0 °F 96% 29.95 in 10.0 mi Variable 6.9 mph - 0.01 in   Overcast
12:16 PM 45.0 °F 39.7 °F 42.1 °F 90% 29.95 in 10.0 mi SSE 10.4 mph - N/A   Mostly Cloudy
12:53 PM 46.9 °F - 43.0 °F 86% 29.95 in 10.0 mi South 8.1 mph - N/A   Mostly Cloudy
1:53 PM 46.9 °F - 41.0 °F 80% 29.96 in 10.0 mi South 8.1 mph - N/A   Mostly Cloudy
2:39 PM 46.0 °F 41.9 °F 39.9 °F 79% 29.95 in 10.0 mi SSE 8.1 mph - 0.00 in   Mostly Cloudy
2:53 PM 46.0 °F 42.5 °F 39.9 °F 79% 29.96 in 10.0 mi SSE 6.9 mph - 0.00 in   Mostly Cloudy
3:00 PM 46.0 °F 42.5 °F 39.9 °F 79% 29.95 in 10.0 mi SSE 6.9 mph - N/A   Overcast
3:22 PM 46.0 °F 43.1 °F 39.9 °F 79% 29.95 in 10.0 mi ESE 5.8 mph - N/A   Overcast
3:53 PM 44.1 °F 40.1 °F 41.0 °F 89% 29.96 in 6.0 mi SE 6.9 mph - 0.00 in Rain Light Rain
4:53 PM 45.0 °F 40.6 °F 39.9 °F 82% 29.96 in 10.0 mi SSE 8.1 mph - 0.01 in   Mostly Cloudy
5:00 PM 46.0 °F 41.4 °F 39.9 °F 79% 29.95 in 10.0 mi South 9.2 mph - N/A   Mostly Cloudy
5:53 PM 45.0 °F 41.2 °F 42.1 °F 90% 29.96 in 10.0 mi Variable 6.9 mph - N/A   Overcast
6:11 PM 45.0 °F 40.6 °F 42.1 °F 90% 29.95 in 10.0 mi SSE 8.1 mph - N/A   Overcast
6:53 PM 45.0 °F 41.2 °F 42.1 °F 90% 29.96 in 10.0 mi SE 6.9 mph - N/A   Overcast
7:53 PM 44.1 °F 39.5 °F 41.0 °F 89% 29.96 in 10.0 mi SE 8.1 mph - N/A   Overcast
8:53 PM 43.0 °F 37.7 °F 41.0 °F 93% 29.96 in 10.0 mi ESE 9.2 mph - N/A   Mostly Cloudy
9:53 PM 43.0 °F 39.5 °F 39.9 °F 89% 29.97 in 10.0 mi SE 5.8 mph - N/A   Overcast
10:31 PM 44.1 °F 39.5 °F 39.0 °F 82% 29.96 in 10.0 mi SE 8.1 mph - N/A   Overcast
10:46 PM 44.1 °F 40.1 °F 39.0 °F 82% 29.96 in 10.0 mi ESE 6.9 mph - N/A   Overcast
10:53 PM 43.0 °F 38.2 °F 39.0 °F 86% 29.97 in 10.0 mi ESE 8.1 mph - N/A   Overcast
11:53 PM 43.0 °F 39.5 °F 37.9 °F 82% 29.96 in 10.0 mi ESE 5.8 mph - N/A   Mostly Cloudy